When you browse on this site, cookies collect data to enhance your experience and personalize the content and advertising you see.
Visit our Privacy Policy to learn more. By continuing to use the site, you agree to this use of cookies and data.
  • In Czech Republic
  • List of Countries
  • For 7 days
  • Water Temperature
  • Satellite Maps
  • Weather Map
  • Weather Widgets
  • user-avatar
    Login

    Hourly Weather Gitega

    Today, 24 January, Thursday

    Time Temperature Precipitation Wind Pressure Humidity
    00:00 +18°C° 0.1 mm 1 mps 624 mmHg 91%
    01:00 +18°C° 0.1 mm 1 mps 623 mmHg 91%
    02:00 +16°C° 0.1 mm 1 mps 623 mmHg 91%
    03:00 +16°C° 0 mm 1 mps 623 mmHg 90%
    04:00 +16°C° 0 mm 1 mps 623 mmHg 89%
    05:00 +16°C° 0 mm 1 mps 623 mmHg 88%
    06:00 +19°C° 0 mm 1 mps 624 mmHg 83%
    07:00 +20°C° 0 mm 1 mps 624 mmHg 77%
    08:00 +21°C° 0 mm 1 mps 625 mmHg 72%
    09:00 +23°C° 0.1 mm 1 mps 625 mmHg 64%
    10:00 +25°C° 0.1 mm 1 mps 626 mmHg 56%
    11:00 +27°C° 0.1 mm 2 mps 626 mmHg 48%
    12:00 +27°C° 0.3 mm 2 mps 626 mmHg 49%
    13:00 +27°C° 0.3 mm 2 mps 625 mmHg 51%
    14:00 +27°C° 0.3 mm 2 mps 624 mmHg 52%
    15:00 +26°C° 0.6 mm 2 mps 624 mmHg 57%
    16:00 +25°C° 0.6 mm 2 mps 623 mmHg 62%
    17:00 +24°C° 0.6 mm 2 mps 623 mmHg 67%
    18:00 +22°C° 1.1 mm 1 mps 623 mmHg 74%
    19:00 +21°C° 1.1 mm 1 mps 623 mmHg 82%
    20:00 +19°C° 1.1 mm 1 mps 623 mmHg 90%
    21:00 +19°C° 0.2 mm 1 mps 623 mmHg 90%
    22:00 +19°C° 0.2 mm 1 mps 623 mmHg 90%
    23:00 +18°C° 0.2 mm 1 mps 624 mmHg 90%

    Tomorrow, 25 January, Friday

    Time Temperature Precipitation Wind Pressure Humidity
    00:00 +18°C° 0 mm 1 mps 623 mmHg 90%
    01:00 +18°C° 0 mm 1 mps 623 mmHg 91%
    02:00 +18°C° 0 mm 1 mps 623 mmHg 91%
    03:00 +16°C° 0 mm 1 mps 622 mmHg 91%
    04:00 +16°C° 0 mm 1 mps 622 mmHg 90%
    05:00 +16°C° 0 mm 1 mps 622 mmHg 90%
    06:00 +18°C° 0 mm 1 mps 623 mmHg 86%
    07:00 +19°C° 0 mm 1 mps 624 mmHg 81%
    08:00 +19°C° 0 mm 0 mps 625 mmHg 77%
    09:00 +23°C° 0.1 mm 1 mps 625 mmHg 68%
    10:00 +25°C° 0.1 mm 1 mps 626 mmHg 58%
    11:00 +27°C° 0.1 mm 2 mps 626 mmHg 49%
    12:00 +27°C° 0.2 mm 2 mps 626 mmHg 50%
    13:00 +27°C° 0.2 mm 2 mps 625 mmHg 50%
    14:00 +27°C° 0.2 mm 3 mps 624 mmHg 51%
    15:00 +26°C° 0.3 mm 2 mps 624 mmHg 55%
    16:00 +25°C° 0.3 mm 2 mps 623 mmHg 59%
    17:00 +25°C° 0.3 mm 2 mps 623 mmHg 64%
    18:00 +23°C° 0.1 mm 2 mps 623 mmHg 72%
    19:00 +21°C° 0.1 mm 1 mps 623 mmHg 79%
    20:00 +17°C° 0.1 mm 0 mps 623 mmHg 87%
    21:00 +18°C° 0 mm 1 mps 623 mmHg 87%
    22:00 +18°C° 0 mm 1 mps 623 mmHg 87%
    23:00 +18°C° 0 mm 1 mps 624 mmHg 86%

    Day after tomorrow, 26 January, Saturday

    Time Temperature Precipitation Wind Pressure Humidity
    00:00 +16°C° 0 mm 1 mps 623 mmHg 86%
    01:00 +16°C° 0 mm 1 mps 623 mmHg 86%
    02:00 +16°C° 0 mm 1 mps 622 mmHg 86%
    03:00 +16°C° 0 mm 1 mps 622 mmHg 86%
    04:00 +16°C° 0 mm 1 mps 622 mmHg 86%
    05:00 +15°C° 0 mm 1 mps 622 mmHg 85%
    06:00 +18°C° 0 mm 1 mps 623 mmHg 79%
    07:00 +20°C° 0 mm 1 mps 625 mmHg 73%
    08:00 +20°C° 0 mm 0 mps 626 mmHg 66%
    09:00 +24°C° 0 mm 1 mps 626 mmHg 60%
    10:00 +25°C° 0 mm 2 mps 626 mmHg 54%
    11:00 +27°C° 0 mm 2 mps 626 mmHg 48%
    12:00 +27°C° 0.1 mm 2 mps 626 mmHg 47%
    13:00 +28°C° 0.1 mm 3 mps 625 mmHg 46%
    14:00 +28°C° 0.1 mm 3 mps 625 mmHg 45%
    15:00 +27°C° 0.7 mm 3 mps 624 mmHg 51%
    16:00 +26°C° 0.7 mm 2 mps 624 mmHg 58%
    17:00 +25°C° 0.7 mm 2 mps 623 mmHg 64%
    18:00 +23°C° 0.5 mm 2 mps 623 mmHg 72%
    19:00 +21°C° 0.5 mm 1 mps 623 mmHg 80%
    20:00 +19°C° 0.5 mm 1 mps 623 mmHg 88%
    21:00 +18°C° 0 mm 1 mps 623 mmHg 88%
    22:00 +18°C° 0 mm 1 mps 623 mmHg 89%
    23:00 +18°C° 0 mm 1 mps 623 mmHg 89%

    27 January, Sunday

    Time Temperature Precipitation Wind Pressure Humidity
    00:00 +16°C° 0 mm 1 mps 623 mmHg 89%
    01:00 +16°C° 0 mm 1 mps 622 mmHg 89%
    02:00 +16°C° 0 mm 1 mps 622 mmHg 89%
    03:00 +16°C° 0 mm 1 mps 622 mmHg 88%
    04:00 +15°C° 0 mm 1 mps 622 mmHg 88%
    05:00 +15°C° 0 mm 1 mps 622 mmHg 87%
    06:00 +18°C° 0 mm 1 mps 623 mmHg 81%
    07:00 +20°C° 0 mm 1 mps 624 mmHg 75%
    08:00 +20°C° 0 mm 0 mps 625 mmHg 70%
    09:00 +24°C° 0 mm 1 mps 625 mmHg 62%
    10:00 +26°C° 0 mm 1 mps 626 mmHg 54%
    11:00 +28°C° 0 mm 2 mps 626 mmHg 46%
    12:00 +28°C° 0.1 mm 2 mps 626 mmHg 45%
    13:00 +28°C° 0.1 mm 2 mps 625 mmHg 44%
    14:00 +28°C° 0.1 mm 2 mps 624 mmHg 43%
    15:00 +28°C° 0.1 mm 2 mps 624 mmHg 48%
    16:00 +27°C° 0.1 mm 2 mps 623 mmHg 52%
    17:00 +26°C° 0.1 mm 2 mps 623 mmHg 56%
    18:00 +24°C° 0.2 mm 2 mps 623 mmHg 66%
    19:00 +22°C° 0.2 mm 1 mps 623 mmHg 75%
    20:00 +19°C° 0.2 mm 1 mps 622 mmHg 84%
    21:00 +19°C° 0.3 mm 1 mps 623 mmHg 85%
    22:00 +19°C° 0.3 mm 1 mps 623 mmHg 85%
    23:00 +19°C° 0.3 mm 1 mps 623 mmHg 86%

    28 January, Monday

    Time Temperature Precipitation Wind Pressure Humidity
    00:00 +18°C° 0 mm 1 mps 623 mmHg 86%
    01:00 +18°C° 0 mm 1 mps 622 mmHg 86%
    02:00 +16°C° 0 mm 1 mps 622 mmHg 86%
    03:00 +16°C° 0 mm 1 mps 622 mmHg 86%
    04:00 +16°C° 0 mm 1 mps 622 mmHg 85%
    05:00 +16°C° 0 mm 1 mps 622 mmHg 85%
    06:00 +18°C° 0 mm 1 mps 623 mmHg 79%
    07:00 +20°C° 0 mm 1 mps 624 mmHg 74%
    08:00 +22°C° 0 mm 1 mps 625 mmHg 68%
    09:00 +24°C° 0.1 mm 1 mps 625 mmHg 61%
    10:00 +26°C° 0.1 mm 1 mps 626 mmHg 54%
    11:00 +28°C° 0.1 mm 1 mps 626 mmHg 47%
    12:00 +27°C° 1.2 mm 2 mps 625 mmHg 55%
    13:00 +25°C° 1.2 mm 2 mps 624 mmHg 62%
    14:00 +24°C° 1.2 mm 3 mps 623 mmHg 70%
    15:00 +24°C° 1.3 mm 2 mps 623 mmHg 72%
    16:00 +23°C° 1.3 mm 2 mps 622 mmHg 74%
    17:00 +23°C° 1.3 mm 1 mps 622 mmHg 75%
    18:00 +21°C° 0.3 mm 1 mps 622 mmHg 79%
    19:00 +20°C° 0.3 mm 1 mps 622 mmHg 83%
    20:00 +17°C° 0.3 mm 0 mps 623 mmHg 86%
    21:00 +18°C° 0 mm 1 mps 623 mmHg 87%
    22:00 +18°C° 0 mm 1 mps 623 mmHg 87%
    23:00 +18°C° 0 mm 1 mps 623 mmHg 87%

    29 January, Tuesday

    Time Temperature Precipitation Wind Pressure Humidity
    00:00 +16°C° 0 mm 1 mps 622 mmHg 87%
    01:00 +16°C° 0 mm 1 mps 622 mmHg 86%
    02:00 +16°C° 0 mm 2 mps 621 mmHg 86%
    03:00 +16°C° 0 mm 1 mps 622 mmHg 85%
    04:00 +15°C° 0 mm 1 mps 622 mmHg 85%
    05:00 +15°C° 0 mm 1 mps 622 mmHg 84%
    06:00 +18°C° 0 mm 1 mps 623 mmHg 79%
    07:00 +20°C° 0 mm 1 mps 624 mmHg 74%
    08:00 +19°C° 0 mm 0 mps 625 mmHg 69%
    09:00 +23°C° 0.1 mm 1 mps 625 mmHg 63%
    10:00 +25°C° 0.1 mm 1 mps 626 mmHg 57%
    11:00 +27°C° 0.1 mm 2 mps 626 mmHg 51%
    12:00 +27°C° 0.1 mm 2 mps 625 mmHg 50%
    13:00 +27°C° 0.1 mm 2 mps 624 mmHg 50%
    14:00 +28°C° 0.1 mm 2 mps 624 mmHg 49%
    15:00 +27°C° 0.1 mm 3 mps 623 mmHg 52%
    16:00 +26°C° 0.1 mm 3 mps 623 mmHg 56%
    17:00 +26°C° 0.1 mm 3 mps 623 mmHg 59%
    18:00 +24°C° 0 mm 2 mps 623 mmHg 69%
    19:00 +21°C° 0 mm 2 mps 623 mmHg 79%
    20:00 +20°C° 0 mm 1 mps 623 mmHg 88%
    21:00 +19°C° 0 mm 1 mps 623 mmHg 91%
    22:00 +19°C° 0 mm 1 mps 623 mmHg 93%
    23:00 +18°C° 0 mm 1 mps 623 mmHg 95%
    Show more